Weather in Nurek

Tajikistan     38°23′21″N   69°19′02″E
temp.,
°C
wind,
m/s
gust,
m/s
humid.,
%
clouds,
%
prec.,
mm/h
press.,
hPa
HPBL,
m
14 may, fri
fri1423:00+12ene447266 3.6 101446
02:00+11ene447558 1.2 101341
05:00+11ene447225 1.4 101338
08:00+18ene22575 0.2 1013194
11:00+21wsw23444 0.2 10121731
14:00+22w22410 0.0 10111881
17:00+21w12421 0.0 10101390
20:00+17ene33506 0.0 101117
15 may, sat
sat1523:00+14ene33552 0.1 101221
02:00+14ene33570 0.0 101126
05:00+13ene44580 0.0 101135
08:00+19e22520 0.0 1011206
11:00+22sw23390 0.0 10111713
14:00+23wsw22360 0.0 10102092
17:00+22w124030 0.0 10091938
20:00+17ene335047 0.0 101022
16 may, sun
sun1623:00+15ne45539 0.0 101247
02:00+12ne566661 0.3 101262
05:00+12ne56695 0.4 101362
08:00+19ene33564 0.1 1013184
11:00+23ssw22370 0.1 10122115
14:00+24wsw22323 0.0 10112508
17:00+24w11340 0.0 10091937
20:00+18e33430 0.0 101114
17 may, mon
mon1723:00+16ene44480 0.0 101238
02:00+15ne44485 0.0 101245
05:00+15ene444710 0.0 101345
08:00+20ene33508 0.0 1013178
11:00+24sw122957 0.0 10122500
14:00+25wsw2227100 0.0 10102273
17:00+24wsw11328 0.0 10091516
20:00+18ene33401 0.0 101014
18 may, tue
tue1823:00+17ene44410 0.0 101230
02:00+16ne4441100 0.0 101134
05:00+16ene4441100 0.0 101134
08:00+21e2247100 0.0 1011165
11:00+25sw323699 0.0 10101437
14:00+26wsw33330 0.0 10092406
17:00+25ssw12343 0.0 10081514
20:00+19ene334458 0.0 101016